| time (UTC) | temp C | wind direction | speed KPH | gust KPH | rain 1hr cm | rain 24hr cm | rain mn cm | humidity % | barometer mb |
| 20260504044541 | -17 | 67 | 29.0 | 48.3 | 0.00 | 0.00 | 0.00 | 998.1 | |
| 20260504043039 | -17 | 63 | 32.2 | 45.1 | 0.00 | 0.00 | 0.00 | 998.1 | |
| 20260504041532 | -17 | 53 | 30.6 | 48.3 | 0.00 | 0.00 | 0.00 | 997.7 | |
| 20260504040029 | -17 | 63 | 24.1 | 48.3 | 0.00 | 0.00 | 0.00 | 997.1 | |
| 20260504034523 | -17 | 92 | 20.9 | 40.2 | 0.00 | 0.00 | 0.00 | 996.9 | |
| 20260504033019 | -17 | 70 | 19.3 | 37.0 | 0.00 | 0.00 | 0.00 | 996.4 | |
| 20260504031515 | -17 | 72 | 19.3 | 40.2 | 0.00 | 0.00 | 0.00 | 996.5 | |
| 20260504030010 | -17 | 61 | 24.1 | 38.6 | 0.00 | 0.00 | 0.00 | 996.3 | |
| 20260504024508 | -17 | 68 | 17.7 | 37.0 | 0.00 | 0.00 | 0.00 | 996.2 | |
| 20260504023106 | -17 | 64 | 19.3 | 37.0 | 0.00 | 0.00 | 0.00 | 996.2 | |
| 20260504021606 | -17 | 65 | 16.1 | 29.0 | 0.00 | 0.00 | 0.00 | 996.2 | |
| 20260504020053 | -17 | 65 | 11.3 | 22.5 | 0.00 | 0.00 | 0.00 | 996.4 | |
| 20260504014548 | -17 | 48 | 4.8 | 14.5 | 0.00 | 0.00 | 0.00 | 996.5 | |
| 20260504013043 | -17 | 336 | 8.0 | 17.7 | 0.00 | 0.00 | 0.00 | 996.6 | |
| 20260504011539 | -17 | 346 | 12.9 | 24.1 | 0.00 | 0.00 | 0.00 | 996.6 | |
| 20260504010035 | -17 | 325 | 8.0 | 19.3 | 0.00 | 0.00 | 0.00 | 996.6 | |
| 20260504004530 | -17 | 340 | 12.9 | 22.5 | 0.00 | 0.00 | 0.00 | 996.6 | |
| 20260504003039 | -17 | 313 | 12.9 | 22.5 | 0.00 | 0.00 | 0.00 | 996.7 | |
| 20260504001524 | -17 | 34 | 11.3 | 30.6 | 0.00 | 0.00 | 0.00 | 996.8 | |
| 20260504000019 | -17 | 321 | 14.5 | 25.7 | 0.00 | 0.00 | 0.00 | 996.9 | |
| 20260503234514 | -17 | 300 | 9.7 | 32.2 | 0.00 | 0.00 | 0.00 | 997.0 | |
| 20260503233010 | -17 | 342 | 12.9 | 29.0 | 0.00 | 0.00 | 0.00 | 997.2 | |
| 20260503231506 | -17 | 346 | 14.5 | 33.8 | 0.00 | 0.00 | 0.00 | 997.2 | |
| 20260503230002 | -17 | 332 | 17.7 | 30.6 | 0.00 | 0.00 | 0.00 | 997.3 | |
| 20260503224557 | -17 | 320 | 16.1 | 30.6 | 0.00 | 0.00 | 0.00 | 997.4 | |
| 20260503223053 | -17 | 329 | 12.9 | 29.0 | 0.00 | 0.00 | 0.00 | 997.4 | |
| 20260503221549 | -17 | 331 | 16.1 | 32.2 | 0.00 | 0.00 | 0.00 | 997.7 | |
| 20260503220045 | -17 | 318 | 14.5 | 30.6 | 0.00 | 0.00 | 0.00 | 997.7 | |
| 20260503214539 | -17 | 296 | 14.5 | 30.6 | 0.00 | 0.00 | 0.00 | 997.9 | |
| 20260503213035 | -17 | 22 | 16.1 | 29.0 | 0.00 | 0.00 | 0.00 | 998.0 | |
| 20260503211531 | -17 | 327 | 14.5 | 32.2 | 0.00 | 0.00 | 0.00 | 998.3 | |
| 20260503210027 | -17 | 250 | 14.5 | 25.7 | 0.00 | 0.00 | 0.00 | 998.6 | |
| 20260503204522 | -17 | 322 | 16.1 | 35.4 | 0.00 | 0.00 | 0.00 | 998.9 | |
| 20260503203019 | -17 | 34 | 11.3 | 29.0 | 0.00 | 0.00 | 0.00 | 998.8 | |
| 20260503201513 | -17 | 336 | 17.7 | 43.5 | 0.00 | 0.00 | 0.00 | 998.9 | |
| 20260503200009 | -17 | 318 | 14.5 | 30.6 | 0.00 | 0.00 | 0.00 | 999.2 | |
| 20260503194504 | -17 | 304 | 17.7 | 32.2 | 0.00 | 0.00 | 0.00 | 999.7 | |
| 20260503193104 | -17 | 316 | 11.3 | 32.2 | 0.00 | 0.00 | 0.00 | 999.7 | |
| 20260503191555 | -17 | 309 | 16.1 | 32.2 | 0.00 | 0.00 | 0.00 | 1000.0 | |
| 20260503190051 | -17 | 288 | 12.9 | 24.1 | 0.00 | 0.00 | 0.00 | 1000.0 | |
| 20260503184603 | -17 | 304 | 14.5 | 24.1 | 0.00 | 0.00 | 0.00 | 1000.3 | |
| 20260503183047 | -17 | 309 | 12.9 | 24.1 | 0.00 | 0.00 | 0.00 | 1000.3 | |
| 20260503181537 | -17 | 341 | 9.7 | 22.5 | 0.00 | 0.00 | 0.00 | 1000.4 | |
| 20260503180036 | -17 | 294 | 11.3 | 22.5 | 0.00 | 0.00 | 0.00 | 1000.5 | |
| 20260503174532 | -17 | 323 | 11.3 | 22.5 | 0.00 | 0.00 | 0.00 | 1000.6 | |
| 20260503173032 | -17 | 40 | 11.3 | 22.5 | 0.00 | 0.00 | 0.00 | 1001.1 | |
| 20260503171519 | -17 | 29 | 12.9 | 29.0 | 0.00 | 0.00 | 0.00 | 1001.1 | |
| 20260503090117 | -17 | 321 | 6.4 | 11.3 | 0.00 | 0.00 | 0.00 | 1003.2 | |
| 20260503081544 | -17 | 325 | 6.4 | 11.3 | 0.00 | 0.00 | 0.00 | 1003.8 | |
| 20260503071535 | -17 | 347 | 6.4 | 9.7 | 0.00 | 0.00 | 0.00 | 1004.0 |